Погода в Бигадиче

Турция     39°23′34″N   28°07′52″E
темп.,
°C
ветер,
м/с
пор.,
м/с
влажн.,
%
обл.,
%
осадки,
мм/ч
давл.,
гПа
погр.,
м
16 мая, вс
вс1600:00+15зюз016461 0.0 101011
03:00+14ююз1172100 0.2 101011
06:00+12юв117817 0.3 100811
09:00+18з21561 0.3 1008488
12:00+22з35415 0.1 10072078
15:00+20сз465135 0.1 1007809
18:00+17ссз477098 0.6 1008392
21:00+15зсз007762 0.9 100913
17 мая, пн
пн1700:00+13ю118378 0.0 101010
03:00+12ююв11841 0.0 101010
06:00+11юв118554 0.0 101110
09:00+17юз1160100 0.0 1012435
12:00+22зюз33425 0.0 10111371
15:00+25зюз34335 0.0 10092040
18:00+24зюз4635100 0.0 10091912
21:00+17ююв225689 0.0 101012
18 мая, вт
вт1800:00+16юв22520 0.0 101118
03:00+15юв22522 0.0 101020
06:00+15юв22565 0.0 101120
09:00+22юз24390 0.0 1011485
12:00+26зюз56335 0.0 10111766
15:00+28зюз563160 0.0 10102521
18:00+24сз564998 0.0 1011929
21:00+17ссз117815 0.0 101411
19 мая, ср
ср1900:00+15всв00865 0.0 101510
03:00+14всв11895 0.0 101411
06:00+13в11893 0.0 101412
09:00+21ссз01560 0.0 1014457
12:00+27зсз22315 0.0 10121408
15:00+29зсз34244 0.0 10102038
18:00+28зсз24270 0.0 10091705
21:00+20зюз11580 0.0 100911
20 мая, чт
чт2000:00+18ююв11680 0.0 101011
03:00+16ююв11660 0.0 100911
06:00+16юв22582 0.0 100716
09:00+22зюз23430 0.0 1007458
12:00+26з57320 0.0 10072017
15:00+27з78330 0.0 10062502
18:00+21сз66590 0.0 1008849
21:00+14сз128917 0.0 101139